www.pogodaiklimat.ru

Погода и климат >> Архив погоды >> Узбекистан >> Туябугуз


ПОГОДА в Туябугузе

  • Прогноз погоды в Туябугузе
  • Монитор погоды в Туябугузе

АРХИВ ПОГОДЫ в Туябугузе

Время (UTC), дата Ветер
(напр.,м/с)
 
Видим.   Явления Облачность Т
(С)
Тd
(С)
f
(%)
Тe
(С)
Тes
(С)
Комфортность P
(гПа)
Po
(гПа)
Тmin
(С)
Tmax
(С)
R
(мм)
R24
(мм)
S
(см)
15 10.09 З 1 20 км ясно +18.0 +12.0 68 +19 +19 1020.5 973.7 +24.5
18 10.09 СВ 2 20 км ясно +15.6 +9.2 66 +16 +16 1020.6 973.3 +24.5
00 11.09 В 1 20 км ясно +11.6 +9.4 86 +11 +11 1020.7 972.8
03 11.09 ЮВ 1 20 км ясно +14.1 +9.0 71 +15 +18 1020.3 972.8
06 11.09 З 1 20 км ясно +22.5 +10.0 45 +24 +38 комфорт 1019.9 973.7 +11.6
09 11.09 СЗ 2 20 км ясно +25.8 +5.9 28 +25 +37 комфорт 1018.2 972.6
12 11.09 СЗ 2 20 км ясно +25.9 +7.8 32 +26 +28 жарко 1017.6 972.0
15 11.09 З 1 20 км ясно +18.8 +12.0 65 +21 +21 комфорт 1018.9 972.2 +27.0
21 11.09 В 1 20 км ясно +15.3 +9.9 70 +16 +16 1018.5 971.3
03 12.09 Ю 2 20 км ясно +16.1 +7.3 56 +16 +19 1018.6 971.4
06 12.09 ЮЗ 1 20 км ясно +23.6 +9.9 42 +25 +39 комфорт 1018.1 972.2 +12.4
09 12.09 З 1 20 км 3/0
[Ci fib]
+27.2 +10.3 35 +28 +40 жарко 1015.8 970.6
12 12.09 З 1 20 км 3/0
[Ci fib]
+27.4 +9.7 33 +28 +30 жарко 1015.3 970.1
15 12.09 штиль 0 20 км ясно +21.4 +12.0 55 +24 +24 комфорт 1015.6 969.5 +28.6
18 12.09 ЮВ 2 20 км ясно +17.2 +10.5 65 +18 +18 1016.3 969.5 +28.6
21 12.09 В 1 20 км ясно +16.0 +9.7 66 +17 +17 1015.5 968.5
00 13.09 В 1 20 км ясно +14.5 +10.3 76 +15 +15 1016.0 968.8
03 13.09 Ю 1 20 км 5/0
[Ac trans Ci fib]
+16.4 +7.8 57 +17 +20 1016.7 969.8
06 13.09 Ю 1 20 км 3/0
[Ac trans Ci fib]
+23.8 +8.9 39 +25 +36 комфорт 1017.0 971.1 +14.5
09 13.09 С 1 20 км 4/0
[Ac trans Ci fib]
+28.4 +10.6 33 +29 +39 жарко 1014.5 969.6
12 13.09 З 1 20 км 5/0
[Ac trans Ci fib]
+28.6 +12.2 36 +30 +31 жарко 1014.5 969.4
15 13.09 З 1 20 км 3/0
[Ac trans]
+21.6 +15.1 67 +25 +25 комфорт 1015.3 969.3 +30.0
18 13.09 Ю 2 20 км ясно +17.2 +11.1 67 +18 +18 1015.2 968.5 +30.0
21 13.09 В 1 20 км ясно +16.8 +10.6 67 +18 +18 1015.4 968.5
00 14.09 штиль 0 20 км ясно +15.1 +11.1 77 +15 +15 1014.5 967.5
03 14.09 Ю 2 20 км 1/0
[Ci fib]
+17.8 +8.2 53 +18 +21 1015.3 968.6
06 14.09 З 2 20 км 5/0
[Ac trans Ci fib]
+23.3 +12.1 49 +26 +35 жарко 1015.1 969.3 +15.1
09 14.09 З 2 20 км 3/0
[Ac trans Ci fib]
+30.0 +13.5 36 +31 +41 жарко 1012.7 968.0
12 14.09 З 2 20 км 9/4 600 м
[Sc Ac trans]
+28.1 +15.1 45 +31 +31 душно 1012.5 967.5
15 14.09 З 1 20 км 10/8 600 м
[Sc Ac trans]
+23.6 +17.1 67 +27 +27 жарко 1014.0 968.4 +30.5
18 14.09 С 1 20 км 9/8 600 м
[Sc Ac trans]
+21.8 +13.3 58 +24 +24 комфорт 1014.4 968.5 +30.5
21 14.09 В 1 20 км 4/0
[Ac cast Ci ing]
+19.4 +12.3 63 +22 +22 комфорт 1010.4 967.6
00 15.09 штиль 0 20 км 6/0
[Ac trans Ci fib]
+17.0 +13.2 78 +17 +17 1014.5 967.8
03 15.09 Ю 2 20 км 10/8 600 м
[Sc Ac trans]
+18.7 +14.2 75 +20 +20 1015.0 968.6
06 15.09 Ю 2 20 км 10/6 600 м
[Sc Ac trans]
+20.3 +16.1 77 +24 +26 комфорт 1015.6 969.9 +17.0
09 15.09 Ю 2 20 км 6/0
[Ac trans]
+25.4 +15.5 54 +28 +35 жарко 1013.9 968.5
12 15.09 Ю 1 20 км 9/8 600 м
[Sc Ac trans]
+24.4 +14.5 54 +27 +27 жарко 1015.0 969.3
15 15.09 штиль 0 20 км 3/0
[Ac trans]
+20.5 +16.7 79 +23 +23 комфорт 1016.4 970.3 +27.2
18 15.09 В 1 20 км 9/0
[Ac trans]
+17.6 +15.9 90 +19 +19 1017.4 970.6 +27.2
21 15.09 штиль 0 20 км ясно +15.0 +13.5 91 +15 +15 1017.9 970.8
00 16.09 ЮВ 1 20 км ясно +14.9 +14.0 94 +15 +15 1018.3 971.1
03 16.09 ЮВ 1 20 км ясно +16.4 +12.0 75 +17 +20 1018.6 971.6
06 16.09 ЮЗ 1 20 км ясно +24.6 +15.1 55 +27 +41 жарко 1018.0 972.4 +14.9
09 16.09 СЗ 2 20 км 4/0
[Ac trans Ci fib]
+27.8 +15.6 47 +31 +39 душно 1017.1 972.0
12 16.09 З 1 20 км 10/4 600 м
[Sc Ac trans]
+25.2 +17.0 60 +29 +29 душно 1016.9 971.3
15 16.09 СЗ 1 20 км 8/0
[Ac trans Ci fib]
+18.6 +17.3 92 +21 +21 комфорт 1018.5 971.9 +28.2
18 16.09 В 2 20 км 6/0
[Ci fib]
+17.0 +13.6 80 +17 +17 1019.2 972.3 +28.2
03 17.09 штиль 0 20 км ясно +14.9 +8.1 64 +15 +18 1020.7 973.2

 

Местоположение метеостанции Туябугуз (Ташкентская область, Узбекистан): широта 40.95 долгота 69.37 высота над уровнем моря 500 м.

В архиве по умолчанию представлена погода в Туябугузе за последнюю неделю. Архивные данные за месяц целиком и за предыдущие месяцы, начиная с января 2011 года, Вы можете получить, выбрав интересующий диапазон дат из раскрывающегося списка и нажав кнопку "Ввод!".


*Определитесь, кто Вы:
робот инопланетянин человек

Внимание! Время в таблицах - всемирное. Для получения местного времени необходимо прибавить поправку, которая равна 5 ч.

Смотрите также архив погоды в соседних городах и на ближайших метеорологических станциях:

Погода в Каунчи (Ташкентская область, Узбекистан) (34 км)
Погода в Ташкенте (Ташкентская область, Узбекистан) (37 км)
Погода в Сырдарье (Сырдарьинская область, Узбекистан) (60 км)
Погода в Дуканте (Ташкентская область, Узбекистан) (63 км)
Погода в Ангрене (Ташкентская область, Узбекистан) (68 км)
Погода в Келесе (Южно-Казахстанская область, Казахстан) (72 км)
Погода в Кайракумском (Таджикистан) (81 км)
Погода в Бекабаде (Ташкентская область, Узбекистан) (84 км)
Погода в Чимгане (Ташкентская область, Узбекистан) (86 км)
Погода в Худжанде (Таджикистан) (87 км)

Пояснения к столбцам:

Ветер - указаны скорость ветра в м/с - средняя за 10 мин, порывы в срок и между сроками (в фигурных скобках) и направление, откуда дует ветер: С - северный, СВ - северо-восточный, В - восточный, ЮВ - юго-восточный, Ю - южный, ЮЗ - юго-западный, З - западный, СЗ - северо-западный.
Видимость - горизонтальная дальность видимости в метрах или километрах. При видимости от 1 до 10 км при отсутствии осадков обычно наблюдается дымка, при ухудшении видимости до 1 км и менее - туман. В сухую погоду видимость может ухудшаться дымом, пылью или мглою.
Явления - указаны атмосферные явления, наблюдавшиеся в срок или в последний час перед сроком; фигурными скобками обозначены явления, наблюдавшиеся между сроками (за 1-3 часа до срока); квадратными скобками обозначены град или гололедные отложения с указанием их диаметра в мм.
Облачность - указаны через наклонную черту общая и нижняя облачность в баллах и высота нижней границы облаков в метрах; квадратными скобками обозначены формы облаков: Ci - перистые, Cs - перисто-слоистые, Cc - перисто-кучевые, Ac - высококучевые, As - высокослоистые, Sc - слоисто-кучевые, Ns - слоисто-дождевые, Cu - кучевые, Cb - кучево-дождевые. Подробнее классификацию облаков см. в Атласе облаков (PDF).
T - Температура воздуха - температура, измеренная на высоте 2 м над землей.
Td - Температура точки росы - температура, при понижении до которой содержащийся в воздухе водяной пар достигнет насыщения.
f - Относительная влажность воздуха - влажноcть воздуха, измеренная на высоте 2 м над землей.
Te - Эффективная температура - температура, которую ощущает одетый по сезону человек в тени. Характеристика душности погоды. При расчете учитывается влияние влажности воздуха и скорости ветра на теплоощущения человека.
Tes - Эффективная температура на солнце - температура, которую ощущает человек, с поправкой на солнечный нагрев. Характеристика знойности погоды. Зависит от высоты солнца над горизонтом, облачности и скорости ветра. Ночью, в пасмурную погоду, а также при ветре 12 м/с и более поправка равна нулю.
P - Атмосферное давление - приведенное к уровню моря атмосферное давление.
Po - Атмосферное давление - измеренное на уровне метеостанции атмосферное давление.
Tmin - Минимальная температура - минимум температуры воздуха на высоте 2 м над землей.
Tmax - Максимальная температура - максимум температуры воздуха на высоте 2 м над землей.
R - Количество осадков - Количество выпавших осадков за период времени, мм. При наведении курсора мыши на число - период времени, за который выпало указанное количество осадков.
R24 - Количество осадков - Количество выпавших осадков за 24 часа, мм.
S - Снежный покров - Высота снежного покрова, см. При наведении курсора мыши на число - состояние снежного покрова и степень покрытия местности в баллах.